Showing default

EXPLORER 38 (RAE-A), 3307

Orbit data source: Space-Track

EXPLORER 38 (RAE-A), 3307 is a payload satellite owned by GSFC (US) that was launched on Thu, 04 Jul 1968 UTC via a THOR DELTA J launch vehicle from the Air Force Western Test Range (AFWTR). Payload-class satellites include a variety of spacecraft equipped with specific instruments for various scientific and technological missions. These include communications satellites like Starlink; space stations such as the ISS; scientific satellites like the Hubble; Earth observation satellites from companies like Planet Labs, Umbra, and HawkEye 360; GPS; miniature CubeSats for education and research; and military/defense satellites.

Loading next visibility...
Identifier
3307, 1968-055A
Orbit
Active
Country
Flag of USUS
Related business
Manufacturer
GSFC/FAIRH
Mission
Spacecraft
Bus & Motor
RAE, Unknown motor
Mass
189 kg wet, 189 kg dry
Launch date (UTC)
1968-07-04 (57 years ago)
Launch vehicle
THOR DELTA J
Launch site
Air Force Western Test Range (AFWTR)
Object type
Payload
Rocket body
Debris
Shape & HBR
Unknown
Radar Cross Section
Large (>1 m²)

Expand to show TLE details & history
Last TLE update: 2 days ago

TLE from 2 days ago
0 EXPLORER 38 (RAE-A)
1 03307U 68055A   25307.21482454 -.00000010  00000-0  00000-0 0  9996
2 03307 120.8774  44.5979 0010229 262.8631  97.0808  6.42403209344917
Epoch: 2025-11-03T05:09Z
TLE epoch observation values (Epoch: 2025-11-03T05:09:20.840Z)
Latitude
0.00003°
Longitude
-75.45835°
Altitude
5,847.802 km
Speed
5.71 km/s
True Right ascension
02h 58m 23s
True Declination
0° 00' 00"
Sunlit
Object was in full shadow at epoch
Visualization orbit readout
Latitude
Unknown
Longitude
Unknown
Altitude
Unknown
Speed
Unknown
Apparent Right ascension
Unknown
Apparent Declination
Unknown
Sunlit
N/A
Visualization observer readout
Local Sidereal Time
03:48:52
Azimuth
Unknown
Elevation
Unknown
Doppler factor
Unknown
Orbital elements
Apogee altitude
5,857.527 km
Perigee altitude
5,832.521 km
Semi-major axis
12,223.161 km
Eccentricity
0.00102
Inclination
120.8774°
RAAN
44.5979°
Arg. of periapsis
262.8631°
True anomaly
97.1971°
Mean anomaly
97.0808°
Eccentric anomaly
97.13895°
Mean motion
1.60608 °/min
Orbital period
224.15 mins
BSTAR
0
Loading maneuver chart data...
Computing Atmospheric mass density...
Loading historical data...
Loading historical data...
Loading historical data...
Loading historical data...
Loading historical data...
Loading historical data...
Loading historical data...

Documentation

Showing up to 5 results
|